Regional Weather Roundup
Issued by NWS

Home | Current Version | Previous Version | Graphics & Text | Print | Product List | Glossary On
Versions: 1 2 3 4 5 6 7 8 9 10 11 12 13 14 15 16 17 18 19 20 21 22 23 24 25 26 27 28 29 30 31 32 33 34 35 36 37 38 39 40 41 42 43 44 45 46 47 48 49 50
000
ASUS43 KOAX 250102
RWRNE

WEATHER ROUNDUP FOR NEBRASKA
NATIONAL WEATHER SERVICE OMAHA NE
700 PM CST WED DEC 24 2014

NOTES: SATELLITE DATA IS BEING USED TO AUGMENT CLOUD COVER ABOVE
       12000 FEET.
       "FAIR" INDICATES FEW OR NO CLOUDS BELOW 12,000 FEET WITH NO
       SIGNIFICANT WEATHER AND/OR OBSTRUCTIONS TO VISIBILITY.

  * THESE STATIONS DO NOT REPORT WEATHER SUCH AS RAIN...SNOW OR FOG.

NEZ001>004-019>022-054>056-250200-
NEBRASKA PANHANDLE

CITY           SKY/WX    TMP DP  RH WIND       PRES   REMARKS
SCOTTSBLUFF    MOCLDY    41  27  57 W13       29.54F
ALLIANCE       MOCLDY    33  25  72 SW12      29.53F WCI  24
CHADRON        CLOUDY    31  23  72 CALM      29.51F
SIDNEY         PTCLDY    29  19  66 SW10      29.58F WCI  20
$$

NEZ057>060-069>072-079>082-250200-
SOUTHWEST NEBRASKA

CITY           SKY/WX    TMP DP  RH WIND       PRES   REMARKS
NORTH PLATTE   MOCLDY    31  22  69 CALM      29.61F
IMPERIAL       CLOUDY    36  25  64 SW9       29.62F WCI  29
LEXINGTON      PTCLDY    34  25  70 S9        29.63F WCI  26
MCCOOK         PTCLDY    34  23  64 SW8       29.65F WCI  27
$$

NEZ005>010-023>029-035>040-094-250200-
NORTH CENTRAL NEBRASKA

CITY           SKY/WX    TMP DP  RH WIND       PRES   REMARKS
VALENTINE      PTCLDY    27  22  81 S6        29.53F WCI  20
AINSWORTH      PTCLDY    32  24  73 SW10      29.55S WCI  24
BROKEN BOW     PTCLDY    33  24  69 S5        29.61F WCI  29
O`NEILL        PTCLDY    31  25  79 S8        29.59F WCI  23
ORD            PTCLDY    31  24  75 S8        29.61F WCI  23
$$

NEZ041-046>049-061>064-073>077-083>087-250200-
SOUTH CENTRAL NEBRASKA

CITY           SKY/WX    TMP DP  RH WIND       PRES   REMARKS
GRAND ISLAND   MOCLDY    34  24  67 S12       29.68F WCI  25
HASTINGS       MOCLDY    33  21  61 S6        29.68F WCI  28
HEBRON         CLEAR     33  24  69 S10       29.74F WCI  25
KEARNEY *      PTCLDY    30  21  69 S7        29.67S WCI  23
$$

NEZ011>018-030>034-042>045-250200-
NORTHEAST NEBRASKA

CITY           SKY/WX    TMP DP  RH WIND       PRES   REMARKS
NORFOLK        PTCLDY    28  25  88 S8        29.65F WCI  20
BLAIR          CLOUDY    30  27  89 S6        29.73S WCI  24
COLUMBUS *     CLEAR     30  23  74 S6        29.69F WCI  24
TEKAMAH        CLOUDY    31  27  85 S10       29.73F WCI  22
WAYNE          PTCLDY    26  24  94 S8        29.67F WCI  18
$$

NEZ050>053-065>068-078-088>093-250200-
SOUTHEAST NEBRASKA

CITY           SKY/WX    TMP DP  RH WIND       PRES   REMARKS
LINCOLN        CLEAR     27  24  89 S8        29.74F WCI  19
OMAHA EPPLEY   CLOUDY    31  26  82 S8        29.77F WCI  23
FALLS CITY     CLOUDY    32  28  85 SW8       29.81S WCI  25
NEBRASKA CITY  CLOUDY    31  29  93 SW9       29.77F WCI  23
$$

NEZ044-045-051>053-067-250200-
OMAHA AREA

CITY           SKY/WX    TMP DP  RH WIND       PRES   REMARKS
OMAHA EPPLEY   CLOUDY    31  26  82 S8        29.77F WCI  23
BLAIR          CLOUDY    30  27  89 S6        29.73S WCI  24
OFFUTT AFB     CLOUDY    31  26  84 S7        29.75F WCI  24
WAHOO          FAIR      28  25  89 SE7       29.73F WCI  20
$$


USA.gov is the U.S. government's official web portal to all federal, state and local government web resources and services.